Wind_Speed
18 19 19 19 20 21 20 20 21 21 20 19 19 18 18 18 18 18 19 19 17 17 17 16 16 15 15 15 14 13 13 14 14 14 13 13 13 13 14 14 13 13 14 14
19 19 20 20 21 21 20 20 20 21 20 19 19 19 19 19 19 20 20 20 19 18 18 18 18 17 16 16 15 15 15 15 15 15 14 14 14 14 15 15 15 15 15 15
19 20 20 20 20 20 20 20 20 20 19 19 19 19 19 19 19 20 19 19 19 19 19 19 19 18 18 17 16 16 16 15 16 16 16 16 16 16 16 15 16 16 16 16
20 20 20 19 19 19 19 19 19 19 19 18 18 18 19 19 19 19 19 20 19 19 19 20 19 19 18 18 18 17 17 17 17 17 18 18 17 17 16 15 16 16 17 16
20 19 19 19 19 19 20 19 19 19 19 19 19 19 19 18 18 19 19 20 19 19 19 19 19 18 18 18 19 18 18 18 18 18 19 18 18 17 17 16 16 17 17 17
20 20 20 19 19 20 19 19 20 19 19 20 18 18 19 18 17 18 19 20 20 20 19 18 19 18 18 19 19 19 18 18 18 18 19 19 19 18 18 17 18 17 18 18
19 20 20 19 20 20 19 18 18 18 19 19 18 19 18 17 18 18 18 18 19 20 19 19 19 18 18 19 19 19 19 19 19 19 18 19 19 19 19 18 17 17 17 17
19 19 20 20 19 19 19 19 19 18 18 18 19 19 16 17 17 17 17 18 18 19 20 20 20 19 18 19 19 19 19 19 19 19 19 19 19 19 19 18 17 16 15 16
20 20 20 20 20 20 19 19 19 19 18 18 18 18 16 15 16 16 17 17 17 18 19 20 20 19 19 19 20 20 19 20 20 20 20 20 19 19 19 18 17 17 16 16
20 20 20 20 21 21 20 20 19 19 18 17 17 17 15 15 15 16 16 17 17 17 19 20 19 18 20 20 21 21 21 21 21 21 20 20 20 19 18 18 17 17 17 17
20 21 20 21 22 21 21 21 21 20 19 17 16 16 17 16 16 16 17 17 17 17 19 20 19 19 19 20 21 21 21 21 21 21 21 21 21 20 18 18 18 19 19 18
20 21 20 20 21 21 22 21 21 21 20 18 17 18 17 17 18 18 18 18 18 19 20 20 19 20 19 20 20 21 20 21 21 21 21 21 20 19 19 18 19 19 19 18
20 21 20 20 20 21 22 22 22 21 21 20 18 18 19 19 19 19 19 19 18 19 20 19 19 20 20 20 20 21 21 21 21 21 20 19 19 20 20 19 19 19 20 19
22 22 21 21 21 21 22 22 22 22 22 21 20 20 20 20 20 20 20 20 20 19 20 19 20 20 20 20 20 21 21 21 21 20 20 19 19 20 20 20 20 20 20 19
22 23 22 22 22 22 22 22 23 23 23 22 21 22 21 21 21 20 20 21 21 21 21 20 20 21 21 21 21 20 20 21 20 20 20 20 19 20 20 19 19 19 20 19
23 23 23 23 23 22 23 23 23 24 23 23 23 24 23 22 21 21 21 21 22 21 20 20 20 21 21 21 21 20 20 21 20 20 20 20 20 19 19 18 18 18 19 18
24 24 24 23 23 23 24 23 23 23 23 22 23 22 23 22 22 22 22 22 22 21 21 20 21 21 21 21 21 21 20 21 21 20 20 20 20 19 18 18 18 17 17 17
24 24 24 24 24 25 25 23 23 23 23 23 23 22 22 23 23 23 23 23 22 21 21 21 22 22 21 21 21 20 20 20 21 20 20 20 20 19 18 17 17 17 17 17
24 24 25 25 25 25 25 25 24 24 24 23 23 22 23 23 23 23 22 22 22 21 21 21 21 22 22 21 20 20 20 20 20 20 19 19 19 19 18 17 17 16 17 17
24 24 25 25 25 25 25 25 24 24 23 23 23 23 23 23 23 23 23 22 20 20 20 21 21 21 21 21 21 21 20 20 19 19 19 19 19 18 18 17 17 17 17 17
23 24 24 25 26 27 25 25 26 25 24 23 24 23 23 23 24 23 23 23 21 20 21 21 21 21 21 21 22 21 20 20 19 18 18 18 18 18 18 17 17 17 16 16
22 23 24 25 26 27 26 26 26 25 24 24 24 23 23 23 23 22 23 23 21 21 20 21 21 21 21 22 21 21 21 20 20 19 18 18 17 16 17 17 16 16 15 15
22 23 23 24 24 24 24 25 26 25 24 24 24 24 23 23 23 23 23 23 22 22 22 21 21 21 21 21 21 20 20 19 19 19 18 18 18 17 16 16 16 16 16 16
22 23 23 23 23 23 24 25 25 24 24 24 23 23 23 22 22 23 23 23 24 23 22 22 22 21 22 22 21 21 21 21 20 19 19 18 18 18 17 17 17 17 16 16
21 21 22 23 22 22 23 24 24 23 23 23 23 22 22 22 22 23 22 22 23 23 23 22 21 22 22 22 22 22 22 21 21 21 21 20 20 19 18 18 18 18 18 18
21 21 22 21 21 21 23 23 23 23 22 23 23 22 22 22 22 22 22 22 22 22 22 22 21 21 21 21 21 21 22 22 22 22 22 21 21 20 19 18 18 19 19 18
Wind_Direction
232 234 237 238 238 239 242 244 248 251 254 256 260 263 264 265 264 262 260 259 259 260 260 261 262 265 269 270 272 278 284 289 290 291 290 289 288 291 292 286 281 279 276 276
232 236 238 240 241 243 244 246 250 254 255 258 261 262 264 265 264 262 260 259 257 259 259 258 262 266 269 271 272 275 279 284 289 291 288 288 288 289 290 288 283 279 277 275
234 238 240 241 242 244 245 247 250 253 256 260 262 262 264 265 263 261 259 258 257 258 259 259 258 262 267 270 271 272 276 281 285 286 285 287 288 288 287 287 285 279 276 273
234 236 238 240 242 245 247 247 250 251 255 260 261 265 263 261 261 258 256 257 258 258 259 259 257 259 263 265 266 270 273 277 282 284 286 288 288 288 285 287 287 280 275 272
236 236 238 240 242 243 244 245 249 252 256 259 262 263 263 263 259 256 256 258 258 258 259 257 253 255 260 263 266 271 273 276 280 283 286 286 287 289 288 287 285 280 274 271
237 237 238 239 240 242 243 246 252 256 259 261 261 261 262 262 260 259 257 258 258 257 258 256 254 256 259 262 266 270 272 276 280 283 285 287 287 286 285 289 287 284 279 274
238 239 239 238 240 243 243 246 252 257 260 263 261 261 261 259 259 259 258 256 255 255 255 254 255 257 259 261 264 268 271 275 279 282 284 285 287 286 286 291 290 285 283 280
242 243 241 241 241 244 245 244 247 253 258 261 261 263 261 260 260 259 254 253 254 253 253 253 256 257 259 262 265 266 270 273 277 280 281 282 284 287 288 289 290 284 283 284
241 243 242 242 242 243 244 245 248 253 256 260 262 261 261 259 260 260 255 252 252 252 252 253 256 257 260 262 264 266 270 273 275 277 279 280 282 285 288 289 291 288 282 282
240 241 241 242 241 242 243 246 248 251 256 261 265 263 259 257 259 257 252 252 253 253 252 252 255 259 260 262 263 265 270 273 273 275 278 281 282 282 286 288 291 293 290 286
240 240 242 242 241 243 243 243 246 250 253 259 265 262 258 257 259 258 254 254 255 254 253 253 255 260 263 261 261 264 270 272 273 275 277 279 282 281 282 285 288 293 294 290
242 242 243 245 244 244 247 249 247 250 254 256 258 261 262 260 258 257 257 257 257 258 257 258 262 263 263 262 262 263 269 271 272 274 277 279 280 279 279 282 285 288 290 289
242 243 245 245 246 245 244 245 247 249 252 255 257 260 263 261 258 257 258 260 260 259 259 261 264 264 264 263 264 266 268 270 269 271 275 277 277 278 279 282 283 285 286 288
243 245 244 243 244 247 245 245 247 249 252 255 256 259 261 261 259 259 259 259 259 261 260 263 264 262 262 263 265 266 267 267 268 270 272 275 278 279 280 280 281 283 284 285
244 246 243 242 243 245 246 247 249 251 250 251 254 259 260 260 259 259 259 259 259 261 262 263 263 262 262 263 264 267 267 267 269 270 272 274 278 280 280 279 279 280 282 283
244 245 243 243 245 246 248 248 248 248 249 251 255 258 259 260 259 259 259 260 259 259 260 263 264 263 265 264 265 266 267 268 268 269 271 272 275 278 278 277 277 277 279 279
244 246 247 247 245 247 249 249 249 248 248 250 253 256 257 259 260 260 260 260 260 259 259 261 262 263 265 266 265 266 267 267 268 268 268 269 271 274 275 275 275 274 277 276
244 244 247 249 248 248 251 251 249 247 248 249 251 253 256 258 260 261 261 262 262 260 258 259 259 261 263 264 267 267 267 268 268 269 270 268 270 272 271 271 270 272 274 276
243 244 247 249 251 253 251 252 249 249 251 250 252 254 256 259 260 260 260 263 265 262 259 258 259 260 262 262 264 267 267 266 266 267 268 267 268 268 267 268 268 269 273 275
245 245 247 249 250 251 252 251 250 251 251 250 252 253 255 257 259 258 259 262 262 261 260 260 260 261 260 261 262 262 264 266 268 267 265 265 265 263 263 265 266 268 271 271
245 246 247 248 249 252 252 252 251 251 251 251 252 254 256 256 257 257 258 260 259 261 260 258 260 260 261 263 261 260 261 262 265 266 264 263 262 260 260 261 261 264 267 270
246 247 248 247 249 252 252 251 251 250 251 251 251 253 255 256 256 255 257 258 259 261 259 259 262 261 261 262 263 260 259 261 262 264 262 260 260 261 259 258 258 258 260 265
246 248 250 251 253 253 252 252 251 251 250 251 252 251 253 254 254 255 257 258 259 260 258 259 262 261 260 259 259 259 259 260 261 262 260 258 259 261 260 259 259 258 259 262
250 250 252 254 255 254 253 253 254 254 254 253 252 251 251 253 255 257 259 260 261 260 259 259 260 259 258 258 257 258 259 259 260 259 258 258 260 261 260 260 260 260 262 264
252 253 253 255 255 253 252 252 252 252 253 253 252 250 251 251 255 260 260 259 258 259 260 260 258 257 256 254 255 256 257 257 258 258 257 259 260 259 258 259 259 260 262 262
254 255 254 255 254 251 250 251 251 251 253 253 252 251 251 251 256 259 261 262 261 262 262 260 259 257 254 253 254 256 256 256 256 256 256 258 257 258 255 255 257 260 261 259
Height
5839 5842 5844 5846 5848 5850 5852 5853 5854 5855 5855 5857 5857 5858 5859 5859 5859 5860 5860 5860 5861 5862 5862 5862 5863 5863 5864 5864 5864 5863 5863 5862 5860 5859 5858 5857 5855 5854 5853 5852 5852 5851 5850 5849
5836 5838 5840 5841 5843 5845 5847 5849 5850 5851 5851 5853 5853 5854 5854 5854 5855 5855 5856 5856 5857 5858 5858 5858 5859 5860 5860 5860 5860 5860 5859 5859 5858 5856 5855 5853 5852 5851 5850 5849 5848 5847 5846 5845
5831 5834 5834 5836 5838 5840 5842 5844 5845 5847 5847 5848 5849 5850 5850 5850 5850 5851 5851 5852 5852 5853 5854 5854 5855 5856 5856 5857 5857 5856 5856 5855 5855 5853 5852 5850 5849 5847 5846 5845 5844 5843 5842 5841
5826 5828 5830 5832 5834 5836 5837 5839 5840 5842 5843 5844 5845 5846 5846 5846 5846 5846 5847 5847 5848 5849 5849 5850 5850 5851 5852 5852 5852 5852 5852 5852 5851 5850 5849 5847 5845 5844 5842 5841 5840 5839 5838 5837
5822 5824 5826 5828 5830 5831 5833 5834 5836 5837 5838 5839 5840 5840 5842 5841 5841 5842 5842 5842 5843 5843 5844 5845 5846 5846 5847 5848 5848 5848 5848 5848 5847 5846 5845 5843 5842 5840 5838 5837 5836 5834 5833 5833
5817 5819 5821 5823 5824 5826 5827 5830 5831 5832 5833 5834 5835 5836 5836 5836 5836 5836 5837 5837 5838 5838 5839 5840 5841 5841 5842 5843 5843 5844 5844 5843 5843 5842 5841 5839 5838 5836 5834 5833 5831 5830 5829 5828
5813 5814 5816 5817 5819 5821 5823 5826 5827 5828 5829 5830 5830 5830 5832 5831 5831 5831 5832 5832 5832 5833 5834 5835 5835 5836 5838 5838 5839 5839 5839 5839 5838 5837 5836 5835 5834 5832 5830 5828 5826 5825 5824 5822
5808 5810 5811 5812 5815 5816 5818 5821 5824 5825 5826 5827 5825 5825 5827 5826 5826 5826 5826 5827 5827 5828 5829 5829 5830 5832 5832 5833 5833 5834 5834 5834 5833 5833 5832 5831 5829 5828 5826 5824 5822 5821 5819 5817
5803 5805 5806 5808 5809 5812 5813 5815 5817 5819 5820 5821 5821 5821 5822 5821 5821 5821 5822 5822 5822 5823 5824 5824 5825 5826 5827 5828 5828 5829 5829 5829 5828 5827 5826 5825 5824 5823 5822 5820 5818 5816 5815 5813
5797 5800 5801 5802 5804 5806 5808 5810 5811 5813 5814 5815 5816 5817 5817 5817 5817 5817 5817 5817 5818 5818 5819 5819 5820 5821 5822 5822 5823 5823 5823 5823 5823 5822 5821 5820 5819 5818 5817 5816 5814 5812 5810 5808
5792 5794 5796 5797 5798 5800 5802 5804 5805 5807 5809 5811 5812 5815 5812 5812 5812 5812 5813 5813 5813 5814 5814 5814 5815 5816 5816 5817 5817 5818 5818 5817 5817 5817 5816 5815 5814 5813 5812 5810 5809 5807 5805 5803
5786 5788 5789 5791 5793 5794 5796 5797 5799 5802 5803 5804 5807 5810 5806 5806 5807 5807 5807 5808 5808 5809 5809 5810 5810 5811 5811 5811 5812 5812 5812 5812 5812 5811 5810 5810 5809 5808 5806 5805 5804 5802 5800 5798
5780 5782 5784 5786 5789 5788 5789 5791 5793 5795 5797 5798 5801 5804 5800 5800 5801 5802 5802 5802 5803 5804 5804 5805 5805 5805 5806 5806 5806 5806 5806 5806 5806 5805 5805 5804 5803 5802 5801 5800 5798 5797 5795 5793
5774 5776 5779 5782 5782 5782 5783 5785 5787 5789 5791 5793 5794 5795 5795 5795 5796 5796 5796 5797 5798 5799 5799 5799 5799 5800 5800 5801 5801 5801 5800 5800 5800 5800 5799 5798 5797 5796 5795 5794 5793 5791 5789 5788
5768 5770 5772 5774 5775 5776 5777 5779 5781 5782 5784 5786 5788 5788 5789 5789 5790 5790 5791 5792 5792 5793 5793 5793 5794 5794 5794 5795 5795 5795 5795 5795 5794 5794 5793 5793 5792 5791 5789 5788 5787 5785 5784 5782
5762 5764 5765 5767 5769 5770 5771 5773 5774 5776 5778 5779 5780 5782 5782 5783 5784 5784 5785 5786 5786 5786 5787 5787 5788 5788 5788 5788 5789 5789 5789 5788 5788 5788 5788 5787 5786 5785 5784 5782 5781 5780 5779 5777
5755 5757 5759 5760 5762 5763 5764 5767 5768 5769 5770 5772 5773 5775 5775 5776 5777 5778 5778 5779 5780 5780 5781 5781 5782 5782 5782 5782 5782 5782 5782 5782 5782 5782 5782 5781 5780 5779 5778 5777 5776 5775 5774 5772
5749 5750 5752 5753 5756 5756 5759 5760 5761 5762 5763 5764 5766 5767 5769 5770 5771 5771 5772 5772 5773 5774 5774 5774 5775 5776 5776 5776 5776 5776 5776 5776 5776 5776 5775 5775 5774 5774 5773 5772 5771 5770 5769 5768
5741 5743 5745 5747 5748 5749 5751 5752 5754 5755 5756 5758 5759 5761 5762 5763 5764 5765 5765 5766 5766 5767 5767 5768 5768 5769 5769 5769 5769 5769 5769 5769 5769 5769 5769 5769 5769 5768 5768 5767 5766 5766 5764 5763
5734 5736 5738 5739 5741 5742 5745 5745 5746 5749 5749 5751 5752 5754 5755 5756 5757 5758 5759 5759 5760 5760 5760 5761 5762 5762 5763 5763 5763 5763 5763 5763 5763 5763 5763 5763 5763 5763 5762 5762 5761 5761 5760 5758
5728 5729 5731 5732 5733 5734 5737 5738 5740 5742 5744 5744 5745 5746 5748 5749 5750 5751 5752 5752 5752 5753 5754 5754 5755 5755 5756 5756 5756 5756 5756 5757 5757 5757 5757 5757 5757 5757 5757 5756 5756 5755 5755 5754
5721 5723 5724 5725 5726 5729 5729 5731 5733 5734 5735 5736 5737 5739 5740 5741 5742 5743 5744 5745 5746 5746 5746 5747 5748 5748 5749 5749 5749 5749 5750 5750 5751 5751 5751 5751 5751 5751 5751 5751 5751 5750 5750 5750
5714 5716 5717 5719 5721 5721 5722 5723 5724 5725 5727 5728 5730 5731 5733 5734 5735 5736 5737 5738 5739 5739 5740 5740 5741 5741 5741 5742 5742 5743 5743 5744 5744 5745 5745 5746 5746 5746 5746 5746 5746 5746 5745 5745
5708 5709 5710 5711 5712 5713 5714 5715 5716 5718 5720 5721 5723 5724 5726 5727 5728 5729 5730 5731 5731 5732 5733 5733 5733 5734 5734 5735 5735 5736 5737 5737 5738 5739 5739 5740 5740 5740 5741 5741 5741 5741 5740 5740
5701 5702 5703 5704 5705 5706 5707 5708 5710 5711 5713 5714 5716 5717 5718 5720 5721 5722 5723 5724 5724 5724 5725 5726 5726 5727 5727 5728 5729 5730 5730 5731 5732 5732 5733 5734 5734 5734 5735 5735 5736 5736 5736 5736
5694 5695 5697 5698 5698 5699 5700 5701 5703 5704 5706 5707 5709 5711 5712 5713 5715 5715 5716 5717 5717 5717 5718 5718 5718 5719 5720 5721 5722 5723 5723 5724 5725 5726 5726 5727 5728 5728 5729 5730 5730 5730 5730 5730